www.pogodaiklimat.ru

Погода и климат >> Архив погоды >> Индия >> Indore


ПОГОДА в Indore

  • Прогноз погоды в Indore
  • Монитор погоды в Indore
  • Климат города

АРХИВ ПОГОДЫ в Indore

Время (UTC), дата Ветер
(напр.,м/с)
 
Видим.   Явления Облачность Т
(С)
Тd
(С)
f
(%)
Тe
(С)
Тes
(С)
Комфортность P
(гПа)
Po
(гПа)
Тmin
(С)
Tmax
(С)
R
(мм)
R24
(мм)
S
(см)
21 10.10 штиль 0 4000 м мгла ясно +22.8 +14.0 58 +26 +26 жарко 1007.8 944.8
00 11.10 штиль 0 4000 м мгла ясно +20.2 +15.0 72 +22 +22 комфорт 1008.8 945.2
03 11.10 штиль 0 2000 м мгла ясно +25.0 +16.6 60 +29 +34 душно 1009.0 946.3 +19.0
06 11.10 С 2 4000 м мгла ясно +33.0 +12.8 29 +33 +50 жарко 1007.3 946.2
09 11.10 СВ 2 4000 м 5/5 600 м
[Sc diur, vesp]
+34.2 +13.7 29 +35 +41 очень
жарко
1004.3 943.6
12 11.10 С 2 4000 м 4/4 600 м
[Sc diur, vesp]
+32.8 +11.0 26 +32 +33 жарко 1004.5 943.6 +34.6
15 11.10 С 2 4000 м мгла 1/1 600 м
[]
+28.0 +11.2 35 +29 +29 жарко 1007.9 945.8
18 11.10 СВ 3 4000 м мгла ясно +25.6 +12.0 43 +27 +27 жарко 1009.1 946.6
21 11.10 СВ 3 4000 м мгла ясно +23.0 +13.0 53 +26 +26 жарко 1008.8 945.6
00 12.10 В 4 4000 м мгла ясно +24.0 +14.3 55 +27 +27 жарко 1009.8 946.8
03 12.10 В 3 2000 м мгла ясно +26.4 +16.4 54 +30 +33 душно 1011.7 948.3 +22.6
06 12.10 В 5 4000 м мгла ясно +31.4 +13.1 33 +32 +40 жарко 1009.1 947.7
09 12.10 С 4 4000 м мгла 3/3 750 м
[Sc diur, vesp]
+33.0 +9.9 24 +32 +37 жарко 1006.6 945.5
12 12.10 С 5 4000 м мгла 3/3 600 м
[Sc diur, vesp]
+31.4 +8.7 24 +30 +31 жарко 1006.9 945.5 +33.6
15 12.10 С 3 4000 м мгла ясно +27.6 +9.2 31 +28 +28 жарко 1009.2 947.1
18 12.10 С 2 4000 м мгла ясно +25.0 +13.6 49 +27 +27 жарко 1009.7 947.0
21 12.10 СЗ 3 4000 м мгла ясно +24.2 +13.3 51 +26 +26 жарко 1008.5 945.8
00 13.10 В 3 4000 м мгла ясно +21.6 +14.0 62 +24 +24 комфорт 1011.3 947.8
03 13.10 В 3 2000 м мгла ясно +25.4 +17.0 60 +29 +32 душно 1013.0 950.2 +20.0
06 13.10 В 4 4000 м мгла ясно +30.0 +14.5 39 +32 +43 жарко 1011.8 949.9
09 13.10 С 4 4000 м мгла 3/3 750 м
[Sc]
+32.4 +10.9 27 +32 +37 жарко 1008.3 947.1
12 13.10 С 4 4000 м мгла ясно +31.0 +10.6 28 +31 +31 жарко 1008.8 947.2 +32.5
15 13.10 СВ 2 4000 м мгла ясно +27.6 +9.7 33 +28 +28 жарко 1010.7 948.5
18 13.10 В 2 4000 м мгла ясно +25.0 +11.0 41 +26 +26 жарко 1011.4 948.5
21 13.10 В 2 4000 м мгла ясно +23.8 +11.6 46 +25 +25 комфорт 1010.2 947.1
00 14.10 штиль 0 4000 м мгла ясно +20.0 +11.3 57 +21 +21 комфорт 1011.6 948.5
03 14.10 штиль 0 4000 м мгла ясно +26.4 +11.7 40 +28 +32 жарко 1013.2 950.6 +18.8
06 14.10 ЮЗ 1 4000 м мгла ясно +32.0 +12.6 31 +33 +50 жарко 1012.1 950.6
09 14.10 С 2 4000 м мгла 1/1 750 м
[Sc]
+33.2 +11.2 26 +33 +44 жарко 1008.3 947.3
12 14.10 С 1 4000 м мгла 1/1 750 м
[Sc]
+32.4 +11.4 28 +32 +33 жарко 1008.0 946.9 +33.9
15 14.10 ЮЗ 2 4000 м мгла 3/0
[Ac trans]
+26.6 +14.4 47 +29 +29 жарко 1010.9 948.5
18 14.10 ЮЗ 2 4000 м мгла ясно +23.2 +14.8 59 +27 +27 душно 1011.9 948.8
21 14.10 ЮЗ 2 4000 м мгла ясно +22.4 +15.3 64 +26 +26 жарко 1010.9 947.6
00 15.10 Ю 2 4000 м мгла ясно +20.4 +13.5 65 +23 +23 комфорт 1012.5 948.8
03 15.10 штиль 0 2000 м мгла ясно +25.2 +14.2 50 +28 +32 жарко 1013.5 950.7 +18.7
06 15.10 В 3 4000 м мгла 1/1 750 м
[Sc]
+32.2 +18.9 45 +37 +48 очень
душно
1012.0 950.7
09 15.10 ЮВ 3 4000 м мгла 3/3 750 м
[]
+33.4 +17.5 39 +37 +44 очень
душно
1009.1 948.1
12 15.10 Ю 3 4000 м мгла 1/1 750 м
[Sc]
+31.0 +13.4 34 +32 +33 жарко 1009.7 948.1 +34.4
15 15.10 Ю 1 4000 м мгла ясно +25.6 +14.7 51 +28 +28 жарко 1012.6 949.8
18 15.10 З 1 4000 м мгла ясно +24.2 +18.1 69 +29 +29 душно 1012.9 949.9
21 15.10 СЗ 1 4000 м мгла ясно +22.8 +17.5 72 +28 +28 душно 1012.0 948.7
00 16.10 штиль 0 4000 м мгла ясно +21.6 +17.6 78 +26 +26 душно 1012.9 949.2
03 16.10 штиль 0 2000 м мгла ясно +25.4 +18.8 67 +30 +35 душно 1014.4 951.5 +20.0
06 16.10 Ю 3 4000 м мгла 3/3 750 м
[Cu hum]
+32.4 +16.9 40 +36 +45 очень
душно
1011.8 950.5
09 16.10 ЮЗ 1 4000 м 3/3 750 м
[Sc diur, vesp]
+34.2 +15.0 32 +36 +45 душно 1008.5 947.7
12 16.10 Ю 2 4000 м 3/3 750 м
[Sc diur, vesp]
+32.4 +13.6 32 +34 +34 очень
жарко
1008.7 947.5 +34.3
15 16.10 штиль 0 4000 м мгла ясно +25.4 +14.5 51 +28 +28 жарко 1012.8 950.0
18 16.10 штиль 0 4000 м мгла ясно +24.2 +13.7 52 +26 +26 жарко 1013.1 950.1
21 16.10 штиль 0 4000 м мгла ясно +22.8 +13.2 55 +26 +26 жарко 1012.1 948.8
00 17.10 штиль 0 4000 м мгла ясно +20.4 +13.4 64 +22 +22 комфорт 1012.4 948.7
03 17.10 штиль 0 2000 м мгла 4/0
[Ci fib]
+24.2 +16.0 60 +27 +32 жарко 1013.6 950.6 +20.0
06 17.10 З 2 4000 м мгла ясно +31.8 +11.4 29 +32 +47 жарко 1011.2 949.7
09 17.10 З 2 4000 м мгла 3/3 750 м
[]
+33.2 +13.5 30 +34 +42 очень
жарко
1007.6 946.8
12 17.10 штиль 0 4000 м мгла 3/3 600 м
[Sc]
+31.4 +11.2 29 +32 +32 жарко 1007.6 946.3 +34.0
15 17.10 ЮЗ 2 4000 м мгла 3/3 600 м
[Sc]
+25.4 +13.7 48 +28 +28 жарко 1010.6 948.0

 

Местоположение метеостанции Indore (Madhya Pradesh, Индия): широта 22.72 долгота 75.80 высота над уровнем моря 567 м.

В архиве по умолчанию представлена погода в Indore за последнюю неделю. Архивные данные за месяц целиком и за предыдущие месяцы, начиная с января 2011 года, Вы можете получить, выбрав интересующий диапазон дат из раскрывающегося списка и нажав кнопку "Ввод!".


*Определитесь, кто Вы:
робот инопланетянин человек

Внимание! Время в таблицах - всемирное. Для получения местного времени необходимо прибавить поправку, которая в Indore равна 5.5 ч.

Смотрите также архив погоды в соседних городах и на ближайших метеорологических станциях:

Погода в Ujjain (Madhya Pradesh, Индия) (51 км)
Погода в Dhar (Madhya Pradesh, Индия) (53 км)
Погода в Shajapur (Madhya Pradesh, Индия) (95 км)
Погода в Ratlam (Madhya Pradesh, Индия) (102 км)
Погода в Khargone (Madhya Pradesh, Индия) (102 км)
Погода в Khandwa (Madhya Pradesh, Индия) (115 км)
Погода в Bhopal (Madhya Pradesh, Индия) (170 км)
Погода в Rajgarh (Madhya Pradesh, Индия) (171 км)
Погода в Jalgaon (Maharashtra, Индия) (187 км)
Погода в Hoshangabad (Madhya Pradesh, Индия) (202 км)

Пояснения к столбцам:

Ветер - указаны скорость ветра в м/с - средняя за 10 мин, порывы в срок и между сроками (в фигурных скобках) и направление, откуда дует ветер: С - северный, СВ - северо-восточный, В - восточный, ЮВ - юго-восточный, Ю - южный, ЮЗ - юго-западный, З - западный, СЗ - северо-западный.
Видимость - горизонтальная дальность видимости в метрах или километрах. При видимости от 1 до 10 км при отсутствии осадков обычно наблюдается дымка, при ухудшении видимости до 1 км и менее - туман. В сухую погоду видимость может ухудшаться дымом, пылью или мглою.
Явления - указаны атмосферные явления, наблюдавшиеся в срок или в последний час перед сроком; фигурными скобками обозначены явления, наблюдавшиеся между сроками (за 1-3 часа до срока); квадратными скобками обозначены град или гололедные отложения с указанием их диаметра в мм.
Облачность - указаны через наклонную черту общая и нижняя облачность в баллах и высота нижней границы облаков в метрах; квадратными скобками обозначены формы облаков: Ci - перистые, Cs - перисто-слоистые, Cc - перисто-кучевые, Ac - высококучевые, As - высокослоистые, Sc - слоисто-кучевые, Ns - слоисто-дождевые, Cu - кучевые, Cb - кучево-дождевые. Подробнее классификацию облаков см. в Атласе облаков (PDF).
T - Температура воздуха - температура, измеренная на высоте 2 м над землей.
Td - Температура точки росы - температура, при понижении до которой содержащийся в воздухе водяной пар достигнет насыщения.
f - Относительная влажность воздуха - влажноcть воздуха, измеренная на высоте 2 м над землей.
Te - Эффективная температура - температура, которую ощущает одетый по сезону человек в тени. Характеристика душности погоды. При расчете учитывается влияние влажности воздуха и скорости ветра на теплоощущения человека.
Tes - Эффективная температура на солнце - температура, которую ощущает человек, с поправкой на солнечный нагрев. Характеристика знойности погоды. Зависит от высоты солнца над горизонтом, облачности и скорости ветра. Ночью, в пасмурную погоду, а также при ветре 12 м/с и более поправка равна нулю.
P - Атмосферное давление - приведенное к уровню моря атмосферное давление.
Po - Атмосферное давление - измеренное на уровне метеостанции атмосферное давление.
Tmin - Минимальная температура - минимум температуры воздуха на высоте 2 м над землей.
Tmax - Максимальная температура - максимум температуры воздуха на высоте 2 м над землей.
R - Количество осадков - Количество выпавших осадков за период времени, мм. При наведении курсора мыши на число - период времени, за который выпало указанное количество осадков.
R24 - Количество осадков - Количество выпавших осадков за 24 часа, мм.
S - Снежный покров - Высота снежного покрова, см. При наведении курсора мыши на число - состояние снежного покрова и степень покрытия местности в баллах.